SBCG Airport Information

Runway Information
Runway 6 Length 8530 ft width 141 ft
Elevation 0 ft Threshold 0 ft Heading 0
Runway 24 Length 8530 ft Width 141 ft
Elevation 0 ft Threshold 0 ft Heading 0
Airport Frequencies
Type APP Name APP Frequency 120.2 MHZ
Type GND Name GND Frequency 121.9 MHZ
Type OPS Name OPS Frequency 122.5 MHZ
Type TWR Name TWR Frequency 118.1 MHZ
Airport Navaids
Type VOR-DME Name Campo Grande Frequency 115700 KHZ
Type NDB Name Campo Grande Frequency 270 KHZ
Type NDB Name Soja Frequency 395 KHZ
Type NDB Name Maraca Frequency 215 KHZ
Airport Weather Information & NOTAM
ADDS - METARS form results

(1452 UTC 22 July 2018)
 
METAR text: SBCG 221400Z 05009KT CAVOK 24/11 Q1019
Conditions at: SBCG (CAMPO GRANDE INT, BR) observed 1400 UTC 22 July 2018
Temperature: 24.0°C (75°F)
Dewpoint: 11.0°C (52°F) [RH = 44%]
Pressure (altimeter): 30.09 inches Hg (1019.0 mb)
Winds: from the NE (50 degrees) at 10 MPH (9 knots; 4.7 m/s)
Visibility: 6 or more miles (10+ km)
Ceiling: ceiling and visibility are OK
Clouds: unknown
Weather: no significant weather observed at this time